Météo par heure à Kisva

Ce jour, 25 Février, Jeudi

Heure Température Précipitation Vent Pression Humidité
00:00 -19°C° 0.1 mm 4 m/s 759 mmHg 94%
01:00 -18°C° 0.1 mm 4 m/s 758 mmHg 94%
02:00 -19°C° 0.1 mm 5 m/s 757 mmHg 94%
03:00 -18°C° 0.1 mm 5 m/s 757 mmHg 94%
04:00 -17°C° 0.3 mm 5 m/s 756 mmHg 94%
05:00 -17°C° 0.3 mm 5 m/s 755 mmHg 94%
06:00 -15°C° 0.3 mm 5 m/s 754 mmHg 94%
07:00 -15°C° 0.6 mm 6 m/s 753 mmHg 94%
08:00 -14°C° 0.6 mm 6 m/s 752 mmHg 94%
09:00 -11°C° 0.6 mm 6 m/s 751 mmHg 94%
10:00 -9°C° 0.6 mm 6 m/s 750 mmHg 96%
11:00 -6°C° 0.6 mm 7 m/s 749 mmHg 97%
12:00 -3°C° 0.6 mm 7 m/s 748 mmHg 98%
13:00 -2°C° 0.3 mm 7 m/s 748 mmHg 99%
14:00 -2°C° 0.3 mm 6 m/s 747 mmHg 99%
15:00 -1°C° 0.3 mm 6 m/s 747 mmHg 100%
16:00 -1°C° 0 mm 6 m/s 747 mmHg 99%
17:00 0°C° 0 mm 5 m/s 747 mmHg 99%
18:00 0°C° 0 mm 5 m/s 747 mmHg 99%
19:00 0°C° 0 mm 4 m/s 747 mmHg 99%
20:00 0°C° 0 mm 4 m/s 747 mmHg 99%
21:00 -1°C° 0 mm 4 m/s 748 mmHg 99%
22:00 -1°C° 0 mm 4 m/s 748 mmHg 99%
23:00 -1°C° 0 mm 4 m/s 747 mmHg 99%

Demain, 26 Février, Vendredi

Heure Température Précipitation Vent Pression Humidité
00:00 0°C° 0 mm 3 m/s 747 mmHg 99%
01:00 -1°C° 0 mm 4 m/s 747 mmHg 99%
02:00 -1°C° 0 mm 4 m/s 747 mmHg 99%
03:00 0°C° 0 mm 4 m/s 748 mmHg 99%
04:00 0°C° 0.1 mm 4 m/s 747 mmHg 99%
05:00 0°C° 0.1 mm 4 m/s 746 mmHg 99%
06:00 0°C° 0.1 mm 5 m/s 746 mmHg 99%
07:00 0°C° 0.1 mm 5 m/s 746 mmHg 99%
08:00 0°C° 0.1 mm 5 m/s 746 mmHg 99%
09:00 -1°C° 0.1 mm 6 m/s 745 mmHg 99%
10:00 -1°C° 0 mm 6 m/s 745 mmHg 99%
11:00 -1°C° 0 mm 6 m/s 744 mmHg 99%
12:00 +1°C° 0 mm 6 m/s 744 mmHg 99%
13:00 +1°C° 0 mm 6 m/s 743 mmHg 99%
14:00 -1°C° 0 mm 6 m/s 742 mmHg 99%
15:00 -1°C° 0 mm 6 m/s 742 mmHg 99%
16:00 -1°C° 0.1 mm 6 m/s 741 mmHg 99%
17:00 -1°C° 0.1 mm 7 m/s 741 mmHg 99%
18:00 -1°C° 0.1 mm 7 m/s 740 mmHg 99%
19:00 -1°C° 0 mm 7 m/s 740 mmHg 98%
20:00 -1°C° 0 mm 7 m/s 741 mmHg 96%
21:00 -1°C° 0 mm 6 m/s 741 mmHg 95%
22:00 -1°C° 0 mm 6 m/s 740 mmHg 94%
23:00 -1°C° 0 mm 6 m/s 740 mmHg 93%

Après-demain, 27 Février, Samedi

Heure Température Précipitation Vent Pression Humidité
00:00 -1°C° 0 mm 6 m/s 740 mmHg 93%
01:00 -2°C° 0 mm 6 m/s 740 mmHg 91%
02:00 -2°C° 0 mm 6 m/s 740 mmHg 90%
03:00 -3°C° 0 mm 6 m/s 740 mmHg 89%
04:00 -3°C° 0 mm 6 m/s 739 mmHg 90%
05:00 -3°C° 0 mm 6 m/s 739 mmHg 92%
06:00 -2°C° 0 mm 5 m/s 739 mmHg 93%
07:00 -3°C° 0 mm 6 m/s 739 mmHg 93%
08:00 -3°C° 0 mm 6 m/s 739 mmHg 94%
09:00 -3°C° 0 mm 6 m/s 739 mmHg 94%
10:00 -3°C° 0 mm 6 m/s 738 mmHg 95%
11:00 -2°C° 0 mm 6 m/s 738 mmHg 96%
12:00 -2°C° 0 mm 6 m/s 738 mmHg 97%
13:00 -2°C° 0 mm 6 m/s 738 mmHg 97%
14:00 -2°C° 0 mm 6 m/s 738 mmHg 97%
15:00 -2°C° 0 mm 6 m/s 739 mmHg 96%
16:00 -3°C° 0.1 mm 6 m/s 739 mmHg 96%
17:00 -3°C° 0.1 mm 6 m/s 739 mmHg 95%
18:00 -4°C° 0.1 mm 6 m/s 740 mmHg 95%
19:00 -5°C° 0 mm 5 m/s 740 mmHg 94%
20:00 -5°C° 0 mm 4 m/s 741 mmHg 93%
21:00 -7°C° 0 mm 3 m/s 742 mmHg 92%
22:00 -7°C° 0 mm 3 m/s 742 mmHg 93%
23:00 -8°C° 0 mm 3 m/s 743 mmHg 93%

28 Février, Dimanche

Heure Température Précipitation Vent Pression Humidité
00:00 -8°C° 0 mm 3 m/s 743 mmHg 93%
01:00 -8°C° 0 mm 3 m/s 743 mmHg 93%
02:00 -9°C° 0 mm 3 m/s 744 mmHg 93%
03:00 -9°C° 0 mm 3 m/s 745 mmHg 93%
04:00 -10°C° 0 mm 3 m/s 745 mmHg 94%
05:00 -10°C° 0 mm 3 m/s 745 mmHg 94%
06:00 -12°C° 0 mm 3 m/s 746 mmHg 94%
07:00 -12°C° 0 mm 3 m/s 746 mmHg 94%
08:00 -12°C° 0 mm 4 m/s 746 mmHg 93%
09:00 -12°C° 0 mm 4 m/s 747 mmHg 93%
10:00 -11°C° 0 mm 4 m/s 747 mmHg 92%
11:00 -10°C° 0 mm 4 m/s 748 mmHg 91%
12:00 -10°C° 0 mm 4 m/s 748 mmHg 91%
13:00 -9°C° 0 mm 4 m/s 748 mmHg 90%
14:00 -8°C° 0 mm 4 m/s 748 mmHg 89%
15:00 -7°C° 0 mm 5 m/s 749 mmHg 89%
16:00 -8°C° 0 mm 4 m/s 749 mmHg 90%
17:00 -8°C° 0 mm 4 m/s 749 mmHg 92%
18:00 -7°C° 0 mm 3 m/s 750 mmHg 94%
19:00 -7°C° 0 mm 3 m/s 750 mmHg 94%
20:00 -8°C° 0 mm 3 m/s 751 mmHg 95%
21:00 -8°C° 0 mm 3 m/s 751 mmHg 96%
22:00 -9°C° 0 mm 3 m/s 752 mmHg 95%
23:00 -9°C° 0 mm 3 m/s 752 mmHg 95%

1 Mars, Lundi

Heure Température Précipitation Vent Pression Humidité
00:00 -9°C° 0 mm 3 m/s 753 mmHg 95%
01:00 -9°C° 0 mm 2 m/s 753 mmHg 95%
02:00 -9°C° 0 mm 2 m/s 753 mmHg 95%
03:00 -9°C° 0 mm 2 m/s 754 mmHg 95%
04:00 -9°C° 0 mm 2 m/s 754 mmHg 96%
05:00 -10°C° 0 mm 2 m/s 754 mmHg 96%
06:00 -10°C° 0 mm 2 m/s 755 mmHg 96%
07:00 -10°C° 0 mm 2 m/s 755 mmHg 96%
08:00 -10°C° 0 mm 2 m/s 755 mmHg 96%
09:00 -9°C° 0 mm 2 m/s 756 mmHg 95%
10:00 -9°C° 0 mm 3 m/s 756 mmHg 93%
11:00 -8°C° 0 mm 3 m/s 756 mmHg 91%
12:00 -7°C° 0 mm 3 m/s 756 mmHg 89%
13:00 -6°C° 0 mm 3 m/s 756 mmHg 88%
14:00 -6°C° 0 mm 3 m/s 756 mmHg 88%
15:00 -5°C° 0 mm 3 m/s 756 mmHg 88%
16:00 -6°C° 0 mm 3 m/s 756 mmHg 89%
17:00 -7°C° 0 mm 3 m/s 756 mmHg 90%
18:00 -8°C° 0 mm 3 m/s 756 mmHg 92%
19:00 -8°C° 0 mm 3 m/s 755 mmHg 92%
20:00 -9°C° 0 mm 4 m/s 755 mmHg 92%
21:00 -9°C° 0 mm 4 m/s 755 mmHg 92%
22:00 -8°C° 0 mm 4 m/s 754 mmHg 93%
23:00 -7°C° 0 mm 5 m/s 754 mmHg 93%

2 Mars, Mardi

Heure Température Précipitation Vent Pression Humidité
00:00 -6°C° 0 mm 5 m/s 753 mmHg 94%
01:00 -5°C° 0.1 mm 6 m/s 752 mmHg 94%
02:00 -4°C° 0.1 mm 6 m/s 751 mmHg 95%
03:00 -3°C° 0.1 mm 7 m/s 751 mmHg 95%
04:00 -3°C° 0.1 mm 7 m/s 750 mmHg 94%
05:00 -3°C° 0.1 mm 7 m/s 749 mmHg 92%
06:00 -2°C° 0.1 mm 7 m/s 749 mmHg 91%
07:00 -2°C° 0 mm 7 m/s 748 mmHg 92%
08:00 -2°C° 0 mm 7 m/s 748 mmHg 93%
09:00 -2°C° 0 mm 7 m/s 748 mmHg 95%
10:00 -2°C° 0 mm 7 m/s 748 mmHg 96%
11:00 -2°C° 0 mm 7 m/s 748 mmHg 98%
12:00 -2°C° 0 mm 7 m/s 748 mmHg 99%
13:00 -2°C° 0 mm 7 m/s 748 mmHg 98%
14:00 -2°C° 0 mm 7 m/s 748 mmHg 97%
15:00 -2°C° 0 mm 7 m/s 748 mmHg 95%
16:00 -2°C° 0 mm 7 m/s 748 mmHg 92%
17:00 -2°C° 0 mm 7 m/s 749 mmHg 89%
18:00 -2°C° 0 mm 7 m/s 749 mmHg 86%
19:00 -3°C° 0 mm 6 m/s 749 mmHg 87%
20:00 -3°C° 0 mm 6 m/s 750 mmHg 87%
21:00 -3°C° 0 mm 6 m/s 750 mmHg 88%
22:00 -4°C° 0 mm 6 m/s 750 mmHg 88%
23:00 -5°C° 0 mm 6 m/s 750 mmHg 88%
Voir plus

Nous avons besoin de votre consentement

Meteoprog et ses fournisseurs de services peuvent stocker et accéder à des données personnelles telles que des cookies, des identifiants d'appareils ou d'autres technologies similaires sur votre appareil et traiter ces données pour personnaliser le contenu et les publicités, ainsi que pour fournir des fonctionnalités de médias sociaux et analyser le trafic.

  • Stocker et/ou accéder à des informations sur votre appareil

    Des cookies, des identifiants d'appareils ou d'autres informations peuvent être stockés ou accessibles sur votre appareil aux fins indiquées ci-dessus.

  • Annonces et contenus personnalisés, mesure des annonces et des contenus, connaissance de l'audience et développement de produits

    Les annonces et le contenu peuvent être personnalisés en fonction d'un profil. D'autres données peuvent être ajoutées pour mieux personnaliser les annonces et le contenu. Les performances des publicités et du contenu peuvent être mesurées. Il est possible d'obtenir des informations sur le public qui a vu les publicités et le contenu. Ces données peuvent être utilisées pour développer ou améliorer l'expérience de l'utilisateur, les systèmes et les logiciels.

En cliquant sur "J'accepte", vous autorisez l'utilisation de cookies, des identifiants d'appareils, des balises web ou d'autres technologies similaires. Vos paramètres peuvent être modifiés dans le navigateur de votre appareil.

Dans certains cas, des intérêts légitimes peuvent être invoqués plutôt qu'un consentement. Vous pouvez en savoir plus à ce sujet dans notre Politique de confidentialité et de cookies.